Location: Rometta
(44.2000°N, 10.0500°E)
Time: 21:41:17
(UTC+00:00)

Cosmos 1538 Rocket - Pass Details

Date: 20 January 2021
Orbit: 752 x 791 km, 74.0° (Epoch: 03 March)

Event Time Altitude Azimuth Distance (km) Brightness Sun altitude
Rises 17:08:30 0° 343° (NNW) 3,217 7.2 -9.9°
Reaches altitude 10° 17:10:56 10° 348° (NNW) 2,287 6.4 -10.3°
Maximum altitude 17:16:00 54° 65° (ENE) 915 4.1 -11.2°
Drops below altitude 10° 17:21:03 10° 143° (SE) 2,273 6.2 -12.1°
Sets 17:23:27 0° 148° (SSE) 3,197 7.0 -12.5°
